Location: Oakhurst
(33.6448°N, 111.9543°W)
Time: 21:29:08
(UTC+00:00)

FO-99 - Pass Details

Date: 04 August 2021
Orbit: 471 x 503 km, 97.2° (Epoch: 25 September)

Event Time Altitude Azimuth Distance (km) Brightness Sun altitude
Exits shadow 03:07:15 - 156° (SSE) 2,057 ? -8.7°
Reaches altitude 10° 03:08:05 10° 153° (SSE) 1,711 ? -8.8°
Maximum altitude 03:11:41 53° 77° (ENE) 624 ? -9.5°
Drops below altitude 10° 03:15:18 10° 359° (N) 1,720 ? -10.2°
Sets 03:17:25 0° 355° (N) 2,606 ? -10.6°
